一网星座-0279星 (ONEWEB-0279 )

导读 | 星芒AI

ONEWEB-0279 是 OneWeb 卫星星座计划中的一颗低轨通信卫星,旨在为全球提供高速互联网服务。该卫星由 OneWeb 公司部署,采用统一的卫星平台设计,具备高容量通信能力,支持偏远和农村地区的网络接入。作为 OneWeb 低轨卫星网络的一部分,它运行在约 1200 公里的轨道高度,与其他卫星协同工作,实现全球覆盖。该卫星的发射和运行有助于推动全球数字包容性,提升通信基础设施水平。

基本信息
目录编号:
48997
目录名称:
ONEWEB-0279
国际标识:
2021-060AG
轨道中心:
EARTH
卫星名称:
一网星座-0279星
卫星全名:
一网星座-0279星 (ONEWEB-0279 )
卫星状态:
在轨 (已飞行1628 天)
发射日期:
2021-07-01 UTC
国别 :
英国 (GB)
星等 :
--
轨道信息
数据来源 国际轨道数据 AOE轨道数据
星历时间 2025-12-14T20:36:14+0800
1天前
查看轨道信息
2025-12-14T07:00:00+0800
1天前
查看轨道信息
半长轴 7575.891km 7575.892km
偏心率 0.0001997 0.0002077
轨道倾角 87.905° 87.907°
近地点辐角 71.451° 65.454°
升交点赤经 265.539° 265.652°
平近点角 288.684° 129.600°
近地点 1196.243km 1196.183km
远地点 1199.269km 1199.331km
周期 109.373分钟 109.373分钟
每日圈数 13.16595 13.165948
详细信息
平衡模式:
三轴稳定
覆盖范围:
全球
运营商:
一网卫星公司
运营商所在国:
英国
制造商(研发单位):
一网卫星公司
制造商所在国:
英国
使用方式:
暂无
卫星简介
OneWeb卫星网络由648颗重约125公斤的微型卫星组成,运行在1200公里的轨道上。 每颗卫星都能够提供至少每秒8千兆位的吞吐量,以使用其高吞吐量的Ku频段有效载荷为家庭和移动平台提供互联网接入。该卫星仍在工作。
2D轨道图
3D轨道图
轨道高度分析图
轨道倾角分析图
轨道综合分析图
查看轨道综合分析图